User: anonymous   Login
Location: Unspecified
(0.0000°N, 0.0000°E)
Time: 12:37:49
(UTC+00:00)
Language:

UME 2 Rocket - Orbit

View from above orbital plane
View from above orbital plane
View from above satellite
View from above satellite

Ground track
Ground track

The orbit data is extracted from the following two-line orbital elements,

1 10674U 78018A   18171.59960396 -.00000045  00000-0  84381-5 0  9996
2 10674  69.3623  15.8099 0162324  35.6160 356.3095 13.43607984978875
Epoch (UTC): 20 June 2018 14:23:25
Eccentricity: 0.0162324
inclination: 69.3623°
perigee height: 974 km
apogee height: 1217 km
right ascension of ascending node: 15.8099°
argument of perigee: 35.6160°
revolutions per day: 13.43607984
mean anomaly at epoch: 356.3095°
orbit number at epoch: 97887

The dashed part of the orbit path shows where the satellite is in the earth's shadow,  

DLR